www.pogodaiklimat.ru

Погода и климат >> Архив погоды >> Россия >> Якутия >> Тюмяти


ПОГОДА в Тюмяти

  • Прогноз погоды в Тюмяти
  • Монитор погоды в Тюмяти

АРХИВ ПОГОДЫ в Тюмяти

Время (UTC), дата Ветер
(напр.,м/с)
 
Видим.   Явления Облачность Т
(С)
Тd
(С)
f
(%)
Тe
(С)
Тes
(С)
Комфортность P
(гПа)
Po
(гПа)
Тmin
(С)
Tmax
(С)
R
(мм)
R24
(мм)
S
(см)
06 15.04 штиль 0 20 км ясно -13.0 -18.2 65 -13 -7 1005.7 1002.2
09 15.04 С 1 20 км 3/0
[Ac trans Ci fib]
-12.2 -18.4 60 -14 -13 1006.8 1003.3
12 15.04 штиль 0 20 км 3/0
[Ac trans]
-18.4 -21.7 75 -18 -18 1007.6 1004.0 -11.7
15 15.04 штиль 0 20 км 1/0
[Ac trans]
-23.0 -24.3 89 -23 -23 1007.9 1004.2
18 15.04 Ю 1 20 км 1/0
[Cs]
-27.7 -28.9 89 -32 -32 опасность
обморожения
1008.1 1004.4
21 15.04 Ю 1 20 км 6/0
[Ac trans Cs]
-31.2 -32.4 89 -35 -35 опасность
обморожения
1008.9 1005.1
00 16.04 штиль 0 20 км 6/0
[Ci fib]
-25.5 -27.3 85 -26 -22 1008.9 1005.2 -32.8 40
03 16.04 штиль 0 20 км 4/0
[Ci fib]
-20.6 -23.1 80 -21 -14 1008.8 1005.2
06 16.04 СВ 1 20 км 3/0
[Ci fib]
-19.4 -22.0 80 -22 -18 1008.9 1005.3
09 16.04 СЗ 1 20 км 3/0
[Ci fib]
-17.9 -20.5 80 -21 -19 1009.2 1005.6
12 16.04 З 3 20 км 8/0
[Ac trans]
-22.2 -24.1 84 -30 -30 1011.0 1007.3 -17.2
15 16.04 З 2 20 км 3/0
[Ac lent]
-26.6 -28.4 85 -34 -34 опасность
обморожения
1011.0 1007.3
18 16.04 штиль 0 20 км 3/0
[Cs]
-28.1 -29.8 85 -28 -28 1011.6 1007.8
21 16.04 штиль 0 20 км 4/0
[Cs]
-32.9 -34.5 85 -33 -32 опасность
обморожения
1012.5 1008.7
00 17.04 штиль 0 20 км 3/0
[Ac trans Ci fib]
-26.2 -28.1 84 -26 -23 1013.1 1009.4 -33.6 40
03 17.04 З 2 20 км 1/0
[Ac trans]
-19.2 -21.8 80 -25 -20 1013.5 1009.9
06 17.04 З 2 20 км 1/0
[Ac lent]
-15.6 -20.7 65 -21 -17 1014.2 1010.6
09 17.04 С 1 20 км ясно -19.0 -23.1 70 -22 -20 1015.2 1011.6
12 17.04 С 1 20 км ясно -20.7 -22.6 85 -24 -24 1016.2 1012.5 -14.6
15 17.04 С 1 20 км ясно -27.7 -28.9 89 -32 -32 опасность
обморожения
1015.9 1012.2
18 17.04 штиль 0 20 км ясно -33.1 -34.8 85 -33 -33 опасность
обморожения
1015.6 1011.8
21 17.04 С 1 20 км 1/0
[]
-31.2 1015.0
00 18.04 штиль 0 20 км 3/0
[Ci fib]
-23.0 -24.9 84 -23 -19 1014.1 1010.4 -33.3 40
03 18.04 штиль 0 20 км 3/0
[Ci fib]
-15.6 -20.7 65 -16 -9 1013.4 1009.8
06 18.04 З 2 20 км 3/0
[Ci fib]
-13.7 -19.8 60 -18 -14 1013.6 1010.1
09 18.04 штиль 0 20 км 3/0
[Ci fib]
-18.5 -23.5 65 -19 -17 1014.7 1011.1
12 18.04 штиль 0 20 км 6/0
[Ci fib]
-19.2 -24.1 65 -19 -19 1014.6 1011.0 -12.8
15 18.04 С 1 20 км 8/0
[Cs]
-22.9 -26.9 70 -26 -26 1013.7 1010.0
18 18.04 С 1 10 км слаб. снег 10/0
[Cs]
-21.2 -23.1 85 -24 -24 1011.9 1008.2
21 18.04 штиль 0 20 км {снег} 3/0
[Cs]
-22.6 -23.8 90 -23 -22 1011.7 1008.0
00 19.04 штиль 0 20 км {снег} 1/0
[Ac trans]
-18.2 -20.8 80 -18 -14 1012.6 1009.0 -23.0 0.0 40
03 19.04 С 1 20 км 1/0
[Ac trans]
-13.9 -18.2 70 -16 -10 1012.6 1009.1
06 19.04 штиль 0 20 км 10/0
[Ac trans Ci fib]
-9.7 -13.3 75 -10 -5 1012.0 1008.5
09 19.04 В 1 20 км 10/0
[Ac trans Cs]
-7.3 -10.7 77 -10 -8 1012.0 1008.5
12 19.04 ЮВ 1 20 км 10/0
[Ac trans Cs]
-6.5 -12.0 65 -9 -9 1011.8 1008.3 -5.4
15 19.04 Ю 2 20 км 3/0
[Ac trans Ci fib]
-9.3 -13.3 73 -14 -14 1011.9 1008.4
18 19.04 В 1 20 км 10/0
[Ac trans Ci fib]
-9.1 -14.1 67 -11 -11 1012.4 1008.9
21 19.04 штиль 0 20 км 3/0
[Ac trans]
-13.3 -16.8 75 -13 -13 1013.2 1009.7
00 20.04 штиль 0 20 км 1/0
[Ci fib]
-8.9 -15.0 61 -9 -5 1013.4 1009.9 -14.3 40
03 20.04 Ю 1 20 км 3/0
[Ci fib]
-5.8 -12.5 59 -8 -1 1013.5 1010.1
06 20.04 Ю 1 20 км 3/0
[Ci fib]
-3.6 -10.6 58 -5 -0 1013.3 1009.9
09 20.04 Ю 1 20 км 3/0
[Ci fib]
-5.8 -12.5 59 -8 -6 1013.3 1009.9
12 20.04 В 1 20 км 10/0
[Cs]
-7.5 -14.6 57 -10 -10 1013.1 1009.6 -3.3
15 20.04 С 1 20 км 10/0
[Cs]
-14.3 -18.6 70 -17 -17 1012.2 1008.6
18 20.04 С 1 20 км 10/0
[Cs]
-15.1 -18.5 75 -18 -18 1010.0 1006.5
21 20.04 штиль 0 20 км 10/0
[Ac As]
-15.2 -19.4 70 -15 -15 1007.5 1004.0
00 21.04 В 1 20 км 10/0
[Ac As]
-10.3 -15.6 65 -12 -11 1005.1 1001.6 -18.3 40
03 21.04 СВ 2 20 км 10/0
[Ac As]
-5.5 -11.6 62 -9 -8 1002.9 999.5
06 21.04 ЮВ 2 20 км 10/0
[Cs]
-4.1 -10.9 59 -8 -4 1001.4 998.0
09 21.04 Ю 2 20 км 10/0
[Cs]
-5.9 -11.7 64 -10 -9 1000.9 997.5
12 21.04 Ю 1 20 км 10/0
[Ac trans Cs]
-8.2 -13.9 63 -10 -10 1001.0 997.5 -2.4
15 21.04 штиль 0 20 км 10/0
[Ac trans Cs]
-9.7 -14.4 69 -10 -10 1000.5 997.1
18 21.04 штиль 0 20 км 10/0
[Ac trans]
-12.2 -14.9 80 -12 -12 1000.3 996.8
21 21.04 штиль 0 20 км 8/8 600 м
[Sc]
-14.1 -16.1 85 -14 -14 1000.5 997.0
00 22.04 штиль 0 20 км 3/0
[Ci fib]
-8.7 -13.0 71 -9 -5 1000.6 997.2 -15.4 40
03 22.04 штиль 0 20 км 10/0
[Ac As]
-3.9 -7.2 78 -5 -2 1000.7 997.3

 

Местоположение метеостанции Тюмяти (Якутия, Россия): широта 71.92 долгота 123.50 высота над уровнем моря 27 м.

В архиве по умолчанию представлена погода в Тюмяти за последнюю неделю. Архивные данные за месяц целиком и за предыдущие месяцы, начиная с января 2011 года, Вы можете получить, выбрав интересующий диапазон дат из раскрывающегося списка и нажав кнопку "Ввод!".


*Определитесь, кто Вы:
робот инопланетянин человек

Внимание! Время в таблицах - всемирное. Для получения местного времени необходимо прибавить поправку, которая равна 9 ч.

Смотрите также архив погоды в соседних городах и на ближайших метеорологических станциях:

Погода на Столб Острове (Якутия, Россия) (109 км)
Погода на Усть-Оленеке (Якутия, Россия) (173 км)
Погода в Тикси (Якутия, Россия) (192 км)
Погода на Мысе Быков (Якутия, Россия) (193 км)
Погода в Кюсюре (Якутия, Россия) (196 км)
Погода в Саскылахе (Якутия, Россия) (327 км)
Погода в Джарджане (Якутия, Россия) (355 км)
Погода в Анабаре (Якутия, Россия) (363 км)
Погода в Джалинде (Якутия, Россия) (400 км)
Погода в Сухане (Якутия, Россия) (415 км)

Пояснения к столбцам:

Ветер - указаны скорость ветра в м/с - средняя за 10 мин, порывы в срок и между сроками (в фигурных скобках) и направление, откуда дует ветер: С - северный, СВ - северо-восточный, В - восточный, ЮВ - юго-восточный, Ю - южный, ЮЗ - юго-западный, З - западный, СЗ - северо-западный.
Видимость - горизонтальная дальность видимости в метрах или километрах. При видимости от 1 до 10 км при отсутствии осадков обычно наблюдается дымка, при ухудшении видимости до 1 км и менее - туман. В сухую погоду видимость может ухудшаться дымом, пылью или мглою.
Явления - указаны атмосферные явления, наблюдавшиеся в срок или в последний час перед сроком; фигурными скобками обозначены явления, наблюдавшиеся между сроками (за 1-3 часа до срока); квадратными скобками обозначены град или гололедные отложения с указанием их диаметра в мм.
Облачность - указаны через наклонную черту общая и нижняя облачность в баллах и высота нижней границы облаков в метрах; квадратными скобками обозначены формы облаков: Ci - перистые, Cs - перисто-слоистые, Cc - перисто-кучевые, Ac - высококучевые, As - высокослоистые, Sc - слоисто-кучевые, Ns - слоисто-дождевые, Cu - кучевые, Cb - кучево-дождевые. Подробнее классификацию облаков см. в Атласе облаков (PDF).
T - Температура воздуха - температура, измеренная на высоте 2 м над землей.
Td - Температура точки росы - температура, при понижении до которой содержащийся в воздухе водяной пар достигнет насыщения.
f - Относительная влажность воздуха - влажноcть воздуха, измеренная на высоте 2 м над землей.
Te - Эффективная температура - температура, которую ощущает одетый по сезону человек в тени. Характеристика душности погоды. При расчете учитывается влияние влажности воздуха и скорости ветра на теплоощущения человека.
Tes - Эффективная температура на солнце - температура, которую ощущает человек, с поправкой на солнечный нагрев. Характеристика знойности погоды. Зависит от высоты солнца над горизонтом, облачности и скорости ветра. Ночью, в пасмурную погоду, а также при ветре 12 м/с и более поправка равна нулю.
P - Атмосферное давление - приведенное к уровню моря атмосферное давление.
Po - Атмосферное давление - измеренное на уровне метеостанции атмосферное давление.
Tmin - Минимальная температура - минимум температуры воздуха на высоте 2 м над землей.
Tmax - Максимальная температура - максимум температуры воздуха на высоте 2 м над землей.
R - Количество осадков - Количество выпавших осадков за период времени, мм. При наведении курсора мыши на число - период времени, за который выпало указанное количество осадков.
R24 - Количество осадков - Количество выпавших осадков за 24 часа, мм.
S - Снежный покров - Высота снежного покрова, см. При наведении курсора мыши на число - состояние снежного покрова и степень покрытия местности в баллах.